Погода в Конотопе

Погода в Конотопе : погода сейчас, прогноз погоды и архив. Всё, что Вы хотите узнать о погоде в Конотопе!

Хотите узнать прогноз погоды в Конотопе? Тогда Вам сюда: Погода в Конотопе

Поиск расширенной информации на нашем сайте:

Другие новости

Новости СМИ2

Главная страница сайта

Новости сайта

03.07.2017

Напоминаем, что на нашем специализированном сайте Метеоцентр.Азия вы можете получить высокодетализированные автоматические прогнозы погоды по пунктам России, СНГ и мира в авиационном формате (включающие направление и скорость ветра, видимость, явления погоды, количество и форму облачности, нижнюю и верхнюю границу облачности).


Погода в Конотопе - сегодня

Время (UTC), дата Ветер
(°,м/с) 
Видим.   Явления Облачность Т
(°С)
Тd
(°С)
f(%) Тe
(°С)
Pmin
(гПа)
dP
(гПа)
Po
(мм)
O2
(г/м3)
Тmin Tmax R s Состояние
почвы
15 14.02.18 070 (В) 4000 м  слаб. снег  10/0 средняя 
[As op]
-5.6 -8.2 82 -8  1025.2  0.9  754  311           
18 14.02.18 080 (В) 4000 м  слаб. снег  10/5 300 м средняя 
[Frnb|Ac As]
-5.7 -8.7 79 -7  1025.9  0.7  755  312    -4.6  0.5     
00 15.02.18 070 (В) 4000 м  дымка{снег}  10/10 570 м 
[Sc]
-5.6 -7 90 -8  1027  0.1  756  312      0.0     
03 15.02.18 070 (В) 4000 м  дымка  10/10 300 м 
[St]
-5.6 -6.7 92 -8  1027.5  0.5  756  312           
06 15.02.18 070 (В) 4000 м  снежные зёрна  10/10 210 м 
[St]
-5.6 -6.3 95 -8  1028.6  1.1  757  312  -6.1    0.0  12  равномерный
сухой снег
100% 
09 15.02.18 070 (В) 4000 м  снежные зёрна  10/10 270 м 
[St]
-3.5 -4.6 92 -6  1029.5  758  310           
12 15.02.18 070 (В) 10 км  {снег}  10/10 450 м 
[St]
-2.2 -4.7 83 -4  1029.3  -0.1  758  308      0.0     
15 15.02.18 090 (В) 10 км    10/10 360 м 
[St]
-2.3 -4.5 85 -4  1029.5  0.2  758  308           
18 15.02.18 100 (В) 10 км    10/10 1080 м 
[Sc]
-2.4 -4.6 85 -5  1030.2  0.7  758  309    -2.1  0.0     
21 15.02.18 100 (В) 10 км    10/10 330 м 
[St]
-3.4 -5.1 88 -5  1029.9  -0.4  758  310           
00 16.02.18 090 (В) 4000 м  слаб. снег  10/8 300 м средняя 
[Frnb|As op]
-3.7 -5.2 89 -5  1029.9  758  310      0.2     
03 16.02.18 060 (СВ) 4000 м  слаб. снег  10/9 300 м средняя 
[Frnb|As op]
-3.6 -4.7 92 -5  1029.6  -0.3  758  310           
06 16.02.18 080 (В) 4000 м  слаб. снег  10/9 270 м средняя 
[Frnb|As op]
-3 -4.3 91 -4  1029.4  -0.2  758  309  -3.9    14  равномерный
сухой снег
100% 
09 16.02.18 120 (ЮВ) 4000 м  слаб. снег  10/8 180 м средняя 
[Frnb|As op]
-0.7 -1.7 93 -2  1028.9  -0.3  757  306           
12 16.02.18 150 (ЮВ) 10 км  в посл. час снег  10/8 330 м средняя 
[Frnb|As op]
-0.2 -1.9 88 -1  1028.2  -0.6  757  305      0.4     
18 16.02.18 140 (ЮВ) 2000 м  дымка{снег}  10/10 180 м 
[St]
-1.1 -1.5 97 -3  1027.1  -0.4  756  306    +0.1  0.4     
21 16.02.18 150 (ЮВ) 2000 м  слаб. снег  10/9 180 м средняя 
[Frnb|As op]
-1.4 -1.9 96 -2  1026.5  -0.6  756  306           
00 17.02.18 140 (ЮВ) 2000 м  слаб. снег  10/9 150 м средняя 
[Frnb|As op]
-1.6 -2.1 96 -3  1025.2  -1.3  755  306      0.9     
03 17.02.18 140 (ЮВ) 2000 м  снег  10/9 150 м средняя 
[Frnb|As op]
-1.6 -2.1 96 -3  1024.3  -0.9  754  306           
06 17.02.18 140 (ЮВ) 2000 м  слаб. снег  10/9 210 м средняя 
[Frnb|As op]
-1.1 -1.5 97 -1  1023.5  -0.7  753  305  -1.8    18  равномерный
сухой снег
100% 
09 17.02.18 180 (Ю) 4000 м  слаб. снег  10/9 240 м средняя 
[Frnb|As op]
+0.1 -0.7 94 +1  1022.8  -0.6  753  303           
12 17.02.18 270 (З) 4000 м  слаб. снег  10/9 300 м средняя 
[Frnb|As op]
+0.8 -1.2 86 +1  1021.7  -1  752  302         
15 17.02.18 280 (З) 4000 м  дымка{снег}  10/10 330 м 
[St]
-0.1 -0.7 96 -1  1021.6  -0.2  752  303           
18 17.02.18 тихо ()   4000 м  дымка{снег}  10/10 420 м 
[St]
-0.7 -2 91 -1  1022.1  0.4  752  304    +1.2     
21 17.02.18 тихо ()   4000 м  дымка  10/10 420 м 
[St]
-1.5 -2.3 94 -2  1021.9  -0.2  752  305           
Время (UTC), дата Ветер
(°,м/с) 
Видим.   Явления Облачность Т
(°С)
Тd
(°С)
f(%) Тe
(°С)
Pmin
(гПа)
dP
(гПа)
Po
(мм)
O2
(г/м3)
Тmin Tmax R s Состояние
почвы

Для получения пояснительной информации подведите курсор к названию столбца.

ПОГОДА в Конотопе - архив

Всё, что Вы хотите узнать о погоде в Конотопе - удобно и подробно!

Выберите нужную дату (начиная с 1 января 2015* года) и нажмите кнопку "Найти".
Будут отображены архивные сводки погоды по пункту Конотоп, начиная с указанной даты.


Отображать данные в формате CSV (для использования в таблицах Excel)


Внимание! Наш архив погоды предназначен исключительно для личного некоммерческого использования в познавательных целях. Если Вам необходимы официальные справки о состоянии погоды (для производственных, юридических, коммерческих и т.п. целей), обращайтесь в органы Росгидромета.

*Примечание: данная дата относится к архиву по метеостанциям СССР (Россия, СНГ, Балтия).
Архив по метеостанциям Зарубежной Европы и Азии (кроме Китая) хранится 10 дней, по другим регионам земного шара (Китай, Африка, Америка, Австралия, Океания) - 1 день.

Конотоп - район местоположения метеостанции


Название, широта, долгота, высота метеостанции:
Конотоп 51.2°ш. 33.2°д. 149 м над ур. моря [Украина]

Дополнительная информация

В oтличие oт бoльшинства пoгoдных сайтoв мы публикуем пoдрoбную метеoинфoрмацию в детальнoм прoфессиoнальнoм фoрмате.

Характеристики температуры и влажнoсти вoздуха измеряются на высoте 2 м в тени вдали oт зданий и деревьев.
Скoрoсть ветра измеряется на высoте 10 м (на урoвне рoста челoвека скoрoсть ветра ниже в 1.5-2 раза). Если метеoстанция нахoдится в гoрoде или в лесу, тo скoрoсть ветра занижена на 2-4 м/с пo сравнению с oткрытым местoм. Скoрoсть ветра над акватoриями крупных рек и oзёр, а также на вершинах хoлмoв на 2-5 м/с выше, чем в oбычных услoвиях.
Атмoсфернoе давление в разных тoчках местнoсти мoжет значительнo oтличаться oт давления на метеoстанции, в зависимoсти oт услoвий рельефа (при пoдъёме на 10 м давление пoнижается примернo на 1 мм рт.ст.).